New Bedford, MA

3:40 AM EST on February 09, 2016 (GMT -0500)
New Bedford Regional

Weather History for KEWB - December, 2011

Change the Weather History Date:

Monday, December 5, 2011

  Actual Average Record
Temperature  
Mean Temperature 48 °F -  
Max Temperature 60 °F 43 °F 66 °F (2001)
Min Temperature 35 °F 29 °F 14 °F (1989)
Degree Days  
Heating Degree Days 18    
Moisture  
Dew Point 46 °F    
Average Humidity 96    
Maximum Humidity 100    
Minimum Humidity 75    
Precipitation  
Precipitation 0.00 in - - ()
Sea Level Pressure  
Sea Level Pressure 30.33 in    
Wind  
Wind Speed 2 mph (SSW)    
Max Wind Speed 10 mph    
Max Gust Speed -    
Visibility 2 miles    
Events Fog    
Averages and records for this station are not official NWS values.
T = Trace of Precipitation, MM = Missing Value Source: NWS Daily Summary

Daily Weather History Graph

Daily Weather History Graph

Search for Another Location

Airport or City:

Trip Planner

Search our weather history database for the weather conditions in past years. The results will help you decide how hot, cold, wet, or windy it might be!

Date:

Astronomy

Dec. 05, 2011 Rise Set
Actual Time 6:55 AM EST 4:13 PM EST
Civil Twilight 6:23 AM EST 4:44 PM EST
Nautical Twilight 5:49 AM EST 5:19 PM EST
Astronomical Twilight 5:15 AM EST 5:52 PM EST
Moon 1:12 PM EST (12/5) 2:11 AM EST (12/5)
Length of Visible Light 10h 20m
Length of Day
9h 18m
Waxing Gibbous, 79% of the Moon is Illuminated
Dec 5
Waxing Gibbous
Dec 10
Full
Dec 17
Last Quarter
Dec 24
New
Jan 1
First Quarter

Hourly Weather History & Observations

Time (EST) Temp. Windchill Dew Point Humidity Pressure Visibility Wind Dir Wind Speed Gust Speed Precip Events Conditions
12:25 AM 35.6 °F - 35.6 °F 100% 30.41 in 0.2 mi Calm Calm - N/A Fog Fog
12:36 AM 37.4 °F - 37.4 °F 100% 30.41 in 0.2 mi Calm Calm - N/A Fog Fog
12:53 AM 35.6 °F - 35.6 °F 100% 30.40 in 0.2 mi Calm Calm - N/A Fog Fog
1:01 AM 37.4 °F - 35.6 °F 93% 30.40 in 0.2 mi Calm Calm - N/A Fog Fog
1:08 AM 39.2 °F - 37.4 °F 93% 30.40 in 0.2 mi Calm Calm - N/A Fog Fog
1:16 AM 37.4 °F - 37.4 °F 100% 30.40 in 0.2 mi Calm Calm - N/A Fog Fog
1:53 AM 37.0 °F - 37.0 °F 100% 30.39 in 0.2 mi Calm Calm - N/A Fog Fog
2:03 AM 35.6 °F - 35.6 °F 100% 30.39 in 0.2 mi Calm Calm - N/A Fog Fog
2:18 AM 35.6 °F - 33.8 °F 93% 30.39 in 0.2 mi Calm Calm - N/A Fog Fog
2:29 AM 37.4 °F - 37.4 °F 100% 30.39 in 0.2 mi Calm Calm - N/A Fog Fog
2:33 AM 37.4 °F - 37.4 °F 100% 30.39 in 0.2 mi Calm Calm - N/A Fog Fog
2:53 AM 37.0 °F - 36.0 °F 96% 30.38 in 0.2 mi Calm Calm - N/A Fog Fog
2:57 AM 37.4 °F - 35.6 °F 93% 30.38 in 0.5 mi Calm Calm - N/A Fog Fog
3:04 AM 37.4 °F - 35.6 °F 93% 30.38 in 0.5 mi Calm Calm - N/A Fog Fog
3:11 AM 37.4 °F - 37.4 °F 100% 30.38 in 0.2 mi Calm Calm - N/A Fog Fog
3:38 AM 37.4 °F - 35.6 °F 93% 30.37 in 0.2 mi Calm Calm - N/A Fog Fog
3:53 AM 36.0 °F - 35.1 °F 97% 30.37 in 0.2 mi Calm Calm - N/A Fog Fog
4:53 AM 39.0 °F 36.8 °F 37.9 °F 96% 30.36 in 0.2 mi SW 3.5 mph - N/A Fog Fog
5:42 AM 37.4 °F - 37.4 °F 100% 30.36 in 0.2 mi Calm Calm - N/A Fog Fog
5:53 AM 37.0 °F - 36.0 °F 96% 30.37 in 0.2 mi Calm Calm - N/A Fog Fog
6:10 AM 37.4 °F - 37.4 °F 100% 30.37 in 0.2 mi Calm Calm - N/A Fog Fog
6:27 AM 37.4 °F - 37.4 °F 100% 30.37 in 0.2 mi Calm Calm - N/A Fog Fog
6:34 AM 39.2 °F - 39.2 °F 100% 30.37 in 0.2 mi Calm Calm - N/A Fog Fog
6:41 AM 39.2 °F - 39.2 °F 100% 30.38 in 0.8 mi Calm Calm - N/A   Overcast
6:44 AM 39.2 °F - 39.2 °F 100% 30.37 in 1.0 mi Calm Calm - N/A   Overcast
6:49 AM 41.0 °F - 39.2 °F 93% 30.37 in 2.0 mi Calm Calm - N/A   Overcast
6:53 AM 41.0 °F - 39.9 °F 96% 30.38 in 2.5 mi Calm Calm - N/A   Mostly Cloudy
7:27 AM 44.6 °F 43.1 °F 42.8 °F 93% 30.38 in 3.0 mi WSW 3.5 mph - N/A   Overcast
7:53 AM 50.0 °F - 48.9 °F 96% 30.39 in 6.0 mi WSW 4.6 mph - N/A   Mostly Cloudy
8:39 AM 53.6 °F - 51.8 °F 94% 30.38 in 8.0 mi WSW 5.8 mph - N/A   Overcast
8:53 AM 53.1 °F - 51.1 °F 93% 30.38 in 7.0 mi WSW 5.8 mph - N/A   Overcast
9:23 AM 53.6 °F - 51.8 °F 94% 30.38 in 10.0 mi SSW 6.9 mph - N/A   Scattered Clouds
9:53 AM 55.9 °F - 53.1 °F 90% 30.37 in 10.0 mi SSW 6.9 mph - N/A   Partly Cloudy
10:53 AM 60.1 °F - 52.0 °F 75% 30.36 in 10.0 mi SSW 9.2 mph - N/A   Clear
11:53 AM 60.1 °F - 52.0 °F 75% 30.34 in 10.0 mi South 8.1 mph - N/A   Clear
12:53 PM 57.9 °F - 52.0 °F 81% 30.33 in 10.0 mi SSW 8.1 mph - N/A   Clear
1:03 PM 57.2 °F - 51.8 °F 82% 30.33 in 10.0 mi South 10.4 mph - N/A   Scattered Clouds
1:53 PM 57.0 °F - 51.1 °F 81% 30.32 in 10.0 mi SSW 9.2 mph - N/A   Scattered Clouds
2:53 PM 55.9 °F - 51.1 °F 84% 30.30 in 10.0 mi SW 8.1 mph - N/A   Scattered Clouds
3:40 PM 53.6 °F - 51.8 °F 94% 30.30 in 10.0 mi SSW 9.2 mph - N/A   Mostly Cloudy
3:53 PM 53.1 °F - 51.1 °F 93% 30.30 in 10.0 mi South 8.1 mph - N/A   Mostly Cloudy
4:18 PM 53.6 °F - 51.8 °F 94% 30.29 in 8.0 mi South 5.8 mph - N/A   Overcast
4:48 PM 51.8 °F - 51.8 °F 100% 30.29 in 2.0 mi South 8.1 mph - N/A   Overcast
4:53 PM 51.8 °F - 51.8 °F 100% 30.29 in 1.5 mi South 8.1 mph - N/A   Overcast
5:53 PM 52.0 °F - 51.1 °F 97% 30.28 in 1.0 mi SSW 5.8 mph - N/A   Mist
6:00 PM 51.8 °F - 51.8 °F 100% 30.28 in 0.5 mi SSW 3.5 mph - N/A Fog Fog
6:17 PM 51.8 °F - 51.8 °F 100% 30.28 in 0.2 mi SSW 6.9 mph - N/A Fog Fog
6:27 PM 51.8 °F - 51.8 °F 100% 30.28 in 0.2 mi SSW 5.8 mph - N/A Fog Fog
6:50 PM 51.8 °F - 51.8 °F 100% 30.28 in 0.2 mi SSW 5.8 mph - N/A Fog Fog
6:53 PM 52.0 °F - 52.0 °F 100% 30.28 in 0.2 mi SW 6.9 mph - N/A Fog Fog
7:09 PM 51.8 °F - 51.8 °F 100% 30.28 in 0.2 mi SSW 6.9 mph - N/A Fog Fog
7:32 PM 51.8 °F - 51.8 °F 100% 30.27 in 0.2 mi SW 5.8 mph - N/A Fog Fog
7:53 PM 53.1 °F - 52.0 °F 96% 30.28 in 0.2 mi SSW 4.6 mph - N/A Fog Fog
8:15 PM 53.6 °F - 51.8 °F 94% 30.28 in 0.2 mi SW 5.8 mph - N/A Fog Fog
8:40 PM 53.6 °F - 51.8 °F 94% 30.28 in 0.2 mi SSW 5.8 mph - N/A Fog Fog
8:50 PM 53.6 °F - 53.6 °F 100% 30.28 in 0.2 mi SSW 5.8 mph - N/A Fog Fog
8:53 PM 53.1 °F - 53.1 °F 100% 30.28 in 0.2 mi SSW 5.8 mph - N/A Fog Fog
9:03 PM 53.6 °F - 53.6 °F 100% 30.27 in 0.2 mi South 6.9 mph - N/A Fog Fog
9:53 PM 53.1 °F - 53.1 °F 100% 30.26 in 0.2 mi SW 3.5 mph - N/A Fog Fog
10:31 PM 53.6 °F - 53.6 °F 100% 30.26 in 0.5 mi WSW 3.5 mph - N/A Fog Fog
10:53 PM 53.1 °F - 52.0 °F 96% 30.26 in 0.2 mi Calm Calm - N/A Fog Fog
11:21 PM 53.6 °F - 53.6 °F 100% 30.26 in 0.5 mi Calm Calm - N/A Fog Fog
11:30 PM 53.6 °F - 51.8 °F 94% 30.25 in 1.8 mi Calm Calm - N/A   Overcast
11:42 PM 53.6 °F - 51.8 °F 94% 30.24 in 0.5 mi Calm Calm - N/A Fog Fog
11:53 PM 53.1 °F - 53.1 °F 100% 30.23 in 0.8 mi Calm Calm - N/A   Overcast
11:56 PM 53.6 °F - 53.6 °F 100% 30.23 in 2.0 mi Calm Calm - N/A   Overcast